timestamp,wind_dir_avg,wind_spd_max_dir,wind_spd_avg,wind_spd_gust,battery_voltage,lat,long
2017-10-25 00:00:00+00:00,308.0,308.0,3.25,3.64,12.7,47.59359,-54.27349
2017-10-25 00:10:00+00:00,307.0,305.0,3.89,4.4,12.6,47.59359,-54.27349
2017-10-25 00:20:00+00:00,321.0,321.0,3.96,4.22,12.7,47.59359,-54.27349
2017-10-25 00:30:00+00:00,308.0,310.0,3.07,3.35,12.7,47.59359,-54.27349
2017-10-25 00:40:00+00:00,306.0,307.0,4.34,4.57,12.7,47.59359,-54.27349
2017-10-25 00:50:00+00:00,304.0,305.0,4.31,4.71,12.7,47.59359,-54.27349
2017-10-25 01:00:00+00:00,310.0,311.0,3.79,4.04,12.7,47.59359,-54.27349
2017-10-25 01:10:00+00:00,309.0,312.0,3.53,3.93,12.6,47.59359,-54.27349
2017-10-25 01:20:00+00:00,312.0,313.0,2.89,3.18,12.7,47.59359,-54.27349
2017-10-25 01:30:00+00:00,290.0,293.0,2.41,2.97,12.7,47.59359,-54.27349
2017-10-25 01:40:00+00:00,297.0,297.0,3.56,4.07,12.7,47.59359,-54.27349
2017-10-25 01:50:00+00:00,307.0,306.0,2.94,3.28,12.7,47.59359,-54.27349
2017-10-25 02:00:00+00:00,290.0,291.0,3.17,3.46,12.6,47.59359,-54.27349
2017-10-25 02:10:00+00:00,288.0,288.0,3.01,3.17,12.6,47.59359,-54.27349
2017-10-25 02:20:00+00:00,300.0,304.0,2.59,3.13,12.7,47.59359,-54.27349
2017-10-25 02:30:00+00:00,309.0,310.0,2.85,3.04,12.7,47.59359,-54.27349
2017-10-25 02:40:00+00:00,316.0,315.0,3.19,3.63,12.7,47.59359,-54.27349
2017-10-25 02:50:00+00:00,315.0,315.0,2.16,2.53,12.7,47.59359,-54.27349
2017-10-25 03:00:00+00:00,336.0,337.0,0.96,1.24,12.6,47.59359,-54.27349
2017-10-25 03:10:00+00:00,339.0,344.0,0.92,1.27,12.6,47.59359,-54.27349
2017-10-25 03:20:00+00:00,33.0,35.0,0.36,0.53,12.7,47.59359,-54.27349
2017-10-25 03:30:00+00:00,25.0,17.0,1.1,1.25,12.7,47.59359,-54.27349
2017-10-25 03:40:00+00:00,297.0,301.0,2.13,2.38,12.7,47.59359,-54.27349
2017-10-25 03:50:00+00:00,310.0,298.0,0.35,0.48,12.7,47.59359,-54.27349
2017-10-25 04:00:00+00:00,278.0,273.0,0.21,0.44,12.6,47.59359,-54.27349
2017-10-25 04:10:00+00:00,71.0,72.0,0.34,0.46,12.6,47.59359,-54.27349
2017-10-25 04:20:00+00:00,301.0,281.0,0.24,0.42,12.6,47.59359,-54.27349
2017-10-25 04:30:00+00:00,180.0,187.0,0.85,1.09,12.6,47.59359,-54.27349
2017-10-25 04:40:00+00:00,218.0,229.0,1.06,1.23,12.7,47.59359,-54.27349
2017-10-25 04:50:00+00:00,255.0,266.0,0.65,0.99,12.7,47.59359,-54.27349
2017-10-25 05:00:00+00:00,280.0,284.0,1.33,1.54,12.6,47.59359,-54.27349
2017-10-25 05:10:00+00:00,165.0,192.0,0.16,0.26,12.6,47.59359,-54.27349
2017-10-25 05:20:00+00:00,289.0,291.0,0.61,0.87,12.6,47.59359,-54.27349
2017-10-25 05:30:00+00:00,300.0,293.0,1.47,1.8,12.6,47.59359,-54.27349
2017-10-25 05:40:00+00:00,278.0,280.0,1.88,2.22,12.6,47.59359,-54.27349
2017-10-25 05:50:00+00:00,286.0,281.0,1.36,2.12,12.6,47.59359,-54.27349
2017-10-25 06:00:00+00:00,272.0,273.0,0.8,1.02,12.6,47.59359,-54.27349
2017-10-25 06:10:00+00:00,294.0,298.0,0.12,0.37,12.6,47.59359,-54.27349
2017-10-25 06:20:00+00:00,25.0,26.0,1.2,1.32,12.6,47.59359,-54.27349
2017-10-25 06:30:00+00:00,4.0,1.0,1.56,1.82,12.6,47.59359,-54.27349
2017-10-25 06:40:00+00:00,325.0,329.0,2.05,2.42,12.6,47.59359,-54.27349
2017-10-25 06:50:00+00:00,317.0,312.0,2.98,4.01,12.6,47.59359,-54.27349
2017-10-25 07:00:00+00:00,322.0,320.0,3.93,4.17,12.6,47.59359,-54.27349
2017-10-25 07:10:00+00:00,321.0,320.0,4.06,4.47,12.6,47.59359,-54.27349
2017-10-25 07:20:00+00:00,312.0,310.0,2.89,3.2,12.6,47.59359,-54.27349
2017-10-25 07:30:00+00:00,311.0,310.0,1.87,2.25,12.6,47.59359,-54.27349
2017-10-25 07:40:00+00:00,320.0,323.0,2.41,2.72,12.6,47.59359,-54.27349
2017-10-25 07:50:00+00:00,345.0,343.0,2.39,2.66,12.6,47.59359,-54.27349
2017-10-25 08:00:00+00:00,331.0,332.0,1.44,1.67,12.6,47.59359,-54.27349
2017-10-25 08:10:00+00:00,299.0,279.0,0.77,0.99,12.6,47.59359,-54.27349
2017-10-25 08:20:00+00:00,342.0,338.0,1.05,1.35,12.6,47.59359,-54.27349
2017-10-25 08:30:00+00:00,325.0,321.0,1.22,1.77,12.6,47.59359,-54.27349
2017-10-25 08:40:00+00:00,320.0,317.0,1.83,2.53,12.6,47.59359,-54.27349
2017-10-25 08:50:00+00:00,314.0,324.0,2.16,2.67,12.6,47.59359,-54.27349
2017-10-25 09:00:00+00:00,306.0,308.0,2.31,2.5,12.6,47.59359,-54.27349
2017-10-25 09:10:00+00:00,312.0,312.0,1.75,2.25,12.5,47.59359,-54.27349
2017-10-25 09:20:00+00:00,297.0,293.0,2.67,2.99,12.6,47.59359,-54.27349
2017-10-25 09:30:00+00:00,317.0,318.0,2.78,3.04,12.6,47.59359,-54.27349
2017-10-25 09:40:00+00:00,319.0,318.0,3.16,3.4,12.6,47.59359,-54.27349
2017-10-25 09:50:00+00:00,319.0,315.0,2.98,3.31,12.6,47.59359,-54.27349
2017-10-25 10:00:00+00:00,317.0,320.0,2.87,3.2,12.6,47.59359,-54.27349
2017-10-25 10:10:00+00:00,327.0,320.0,1.48,1.91,12.5,47.59359,-54.27349
2017-10-25 10:20:00+00:00,307.0,306.0,1.96,2.37,12.6,47.59359,-54.27349
2017-10-25 10:30:00+00:00,318.0,326.0,3.11,3.5,12.8,47.59359,-54.27349
2017-10-25 10:40:00+00:00,296.0,298.0,3.47,3.82,13.8,47.59359,-54.27349
2017-10-25 10:50:00+00:00,293.0,295.0,2.72,2.98,14.2,47.59359,-54.27349
2017-10-25 11:00:00+00:00,289.0,292.0,1.79,2.07,13.7,47.59359,-54.27349
2017-10-25 11:10:00+00:00,288.0,288.0,2.71,3.03,13.8,47.59359,-54.27349
2017-10-25 11:20:00+00:00,292.0,282.0,2.27,2.67,14.4,47.59359,-54.27349
2017-10-25 11:30:00+00:00,302.0,299.0,2.84,3.11,13.7,47.59359,-54.27349
2017-10-25 11:40:00+00:00,323.0,323.0,1.27,1.82,14.3,47.59359,-54.27349
2017-10-25 11:50:00+00:00,344.0,340.0,2.52,2.86,13.7,47.59359,-54.27349
2017-10-25 12:00:00+00:00,341.0,337.0,2.52,2.77,13.7,47.59359,-54.27349
2017-10-25 12:10:00+00:00,326.0,333.0,2.12,2.45,14.4,47.59359,-54.27349
2017-10-25 12:20:00+00:00,312.0,311.0,3.24,3.76,13.8,47.59359,-54.27349
2017-10-25 12:30:00+00:00,292.0,289.0,2.91,3.9,13.8,47.59359,-54.27349
2017-10-25 12:40:00+00:00,312.0,325.0,1.95,2.62,14.0,47.59359,-54.27349
2017-10-25 12:50:00+00:00,301.0,294.0,2.26,2.77,14.0,47.59359,-54.27349
2017-10-25 13:00:00+00:00,294.0,297.0,1.88,2.38,13.9,47.59359,-54.27349
2017-10-25 13:10:00+00:00,287.0,295.0,2.47,2.97,13.8,47.59359,-54.27349
2017-10-25 13:20:00+00:00,274.0,273.0,2.05,2.3,13.8,47.59359,-54.27349
2017-10-25 13:30:00+00:00,247.0,245.0,1.08,1.37,14.0,47.59359,-54.27349
2017-10-25 13:40:00+00:00,271.0,273.0,1.39,1.63,14.0,47.59359,-54.27349
2017-10-25 13:50:00+00:00,283.0,282.0,1.39,1.59,14.0,47.59359,-54.27349
2017-10-25 14:00:00+00:00,272.0,275.0,1.52,1.68,14.0,47.59359,-54.27349
2017-10-25 14:10:00+00:00,253.0,250.0,1.71,1.87,13.9,47.59359,-54.27349
2017-10-25 14:20:00+00:00,200.0,195.0,1.4,1.68,14.1,47.59359,-54.27349
2017-10-25 14:30:00+00:00,190.0,190.0,2.34,2.49,14.0,47.59359,-54.27349
2017-10-25 14:40:00+00:00,183.0,185.0,2.39,2.54,14.1,47.59359,-54.27349
2017-10-25 14:50:00+00:00,197.0,199.0,2.69,2.8,14.1,47.59359,-54.27349
2017-10-25 15:00:00+00:00,211.0,213.0,2.59,2.9,13.9,47.59359,-54.27349
2017-10-25 15:10:00+00:00,225.0,221.0,1.88,2.12,14.0,47.59359,-54.27349
2017-10-25 15:20:00+00:00,241.0,244.0,2.22,2.34,14.0,47.59359,-54.27349
2017-10-25 15:30:00+00:00,212.0,208.0,2.33,2.71,13.9,47.59359,-54.27349
2017-10-25 15:40:00+00:00,209.0,210.0,3.32,3.53,13.9,47.59359,-54.27349
2017-10-25 15:50:00+00:00,207.0,209.0,3.23,3.5,14.0,47.59359,-54.27349
2017-10-25 16:00:00+00:00,205.0,200.0,3.26,3.46,13.9,47.59359,-54.27349
2017-10-25 16:10:00+00:00,203.0,200.0,3.25,3.41,13.9,47.59359,-54.27349
2017-10-25 16:20:00+00:00,197.0,198.0,3.61,3.7,13.9,47.59359,-54.27349
2017-10-25 16:30:00+00:00,202.0,200.0,3.24,3.45,13.8,47.59359,-54.27349
2017-10-25 16:40:00+00:00,209.0,216.0,3.24,3.53,13.9,47.59359,-54.27349
2017-10-25 16:50:00+00:00,219.0,218.0,3.92,4.11,13.9,47.59359,-54.27349
2017-10-25 17:00:00+00:00,226.0,227.0,4.18,4.54,13.9,47.59359,-54.27349
2017-10-25 17:10:00+00:00,223.0,226.0,4.79,5.12,13.9,47.59359,-54.27349
2017-10-25 17:20:00+00:00,217.0,218.0,4.73,5.15,13.8,47.59359,-54.27349
2017-10-25 17:30:00+00:00,212.0,208.0,5.12,5.55,13.8,47.59359,-54.27349
2017-10-25 17:40:00+00:00,217.0,221.0,4.72,5.2,13.8,47.59359,-54.27349
2017-10-25 17:50:00+00:00,220.0,221.0,5.74,6.3,13.8,47.59359,-54.27349
2017-10-25 18:00:00+00:00,217.0,219.0,5.64,6.48,13.7,47.59359,-54.27349
2017-10-25 18:10:00+00:00,218.0,219.0,5.73,6.26,14.0,47.59359,-54.27349
2017-10-25 18:20:00+00:00,229.0,232.0,5.66,6.75,13.8,47.59359,-54.27349
2017-10-25 18:30:00+00:00,227.0,230.0,6.89,7.52,13.8,47.59359,-54.27349
2017-10-25 18:40:00+00:00,217.0,221.0,5.89,6.65,13.7,47.59359,-54.27349
2017-10-25 18:50:00+00:00,218.0,218.0,6.36,6.86,13.7,47.59359,-54.27349
2017-10-25 19:00:00+00:00,216.0,221.0,5.65,6.24,13.7,47.59359,-54.27349
2017-10-25 19:10:00+00:00,187.0,188.0,5.2,5.81,13.8,47.59359,-54.27349
2017-10-25 19:20:00+00:00,211.0,212.0,6.01,6.72,13.8,47.59359,-54.27349
2017-10-25 19:30:00+00:00,200.0,202.0,5.13,5.77,13.8,47.59359,-54.27349
2017-10-25 19:40:00+00:00,211.0,212.0,5.74,6.07,13.7,47.59359,-54.27349
2017-10-25 19:50:00+00:00,214.0,216.0,5.68,6.01,14.2,47.59359,-54.27349
2017-10-25 20:00:00+00:00,215.0,213.0,5.54,6.09,14.0,47.59359,-54.27349
2017-10-25 20:10:00+00:00,210.0,211.0,5.27,5.76,13.8,47.59359,-54.27349
2017-10-25 20:20:00+00:00,220.0,221.0,5.59,5.97,13.8,47.59359,-54.27349
2017-10-25 20:30:00+00:00,209.0,205.0,4.81,5.3,13.6,47.59359,-54.27349
2017-10-25 20:40:00+00:00,218.0,217.0,5.81,6.09,13.5,47.59359,-54.27349
2017-10-25 20:50:00+00:00,213.0,213.0,4.89,5.12,13.4,47.59359,-54.27349
2017-10-25 21:00:00+00:00,220.0,220.0,4.61,4.89,13.3,47.59359,-54.27349
2017-10-25 21:10:00+00:00,217.0,218.0,4.68,5.0,13.0,47.59359,-54.27349
2017-10-25 21:20:00+00:00,229.0,228.0,5.11,5.48,13.0,47.59359,-54.27349
2017-10-25 21:30:00+00:00,221.0,222.0,5.45,5.72,13.0,47.59359,-54.27349
2017-10-25 21:40:00+00:00,222.0,222.0,5.49,5.69,13.0,47.59359,-54.27349
2017-10-25 21:50:00+00:00,217.0,219.0,5.01,5.5,13.0,47.59359,-54.27349
2017-10-25 22:00:00+00:00,203.0,202.0,3.58,4.04,12.9,47.59359,-54.27349
2017-10-25 22:10:00+00:00,194.0,194.0,2.71,3.26,12.7,47.59359,-54.27349
2017-10-25 22:20:00+00:00,209.0,210.0,2.85,3.42,12.8,47.59359,-54.27349
2017-10-25 22:30:00+00:00,160.0,164.0,2.05,2.36,12.8,47.59359,-54.27349
2017-10-25 22:40:00+00:00,228.0,230.0,3.76,4.16,12.8,47.59359,-54.27349
2017-10-25 22:50:00+00:00,192.0,193.0,2.45,2.6,12.8,47.59359,-54.27349
2017-10-25 23:00:00+00:00,191.0,197.0,2.1,2.35,12.7,47.59359,-54.27349
2017-10-25 23:10:00+00:00,212.0,214.0,1.8,2.02,12.6,47.59359,-54.27349
2017-10-25 23:20:00+00:00,178.0,183.0,2.5,2.96,12.7,47.59359,-54.27349
2017-10-25 23:30:00+00:00,159.0,152.0,1.92,2.24,12.7,47.59359,-54.27349
2017-10-25 23:40:00+00:00,200.0,200.0,1.72,1.89,12.8,47.59359,-54.27349
2017-10-25 23:50:00+00:00,196.0,209.0,1.28,1.66,12.8,47.59359,-54.27349
